Location: Nelson
(41.2830°S, 173.2830°E)
Time: 18:49:59
(UTC+13:00)

COSMOS 2428 - Pass Details

Date: 24 January 2019
Orbit: 845 x 856 km, 70.9° (Epoch: 18 October)

Event Time Altitude Azimuth Distance (km) Brightness Sun altitude
Exits shadow 22:59:29 31° 65° (ENE) 1,466 3.4 -19.1°
Maximum altitude 23:00:03 32° 76° (ENE) 1,449 3.5 -19.2°
Drops below altitude 10° 23:05:04 10° 137° (SE) 2,516 5.3 -19.8°
Sets 23:07:47 0° 146° (SE) 3,461 6.1 -20.1°
